DB0LC-2 Weather Reports


Display with metric or nautical units.
time (UTC)temp
F
wind
direction
speed
MPH
gust
MPH
rain 1hr
in
rain 24hr
in
rain mn
in
humidity
%
barometer
mb
20260904090838 68 0 0.0 0.0 0.00 0.00 0.00 56 918.4
20260904085826 68 0 0.0 0.0 0.00 0.00 0.00 59 918.5
20260904084833 68 0 0.0 0.0 0.00 0.00 0.00 58 918.4
20260904083828 68 0 0.0 0.0 0.00 0.00 0.00 58 918.6
20260904082837 68 0 0.0 0.0 0.00 0.00 0.00 59 918.5
20260904081815 68 0 0.0 0.0 0.00 0.00 0.00 55 918.5
20260904080817 68 0 0.0 0.0 0.00 0.00 0.00 59 918.5
20260904075803 68 0 0.0 0.0 0.00 0.00 0.00 58 918.7
20260904074725 68 0 0.0 0.0 0.00 0.00 0.00 59 918.6
20260904073703 68 0 0.0 0.0 0.00 0.00 0.00 59 918.7
20260904072653 68 0 0.0 0.0 0.00 0.00 0.00 57 918.5
20260904070652 68 0 0.0 0.0 0.00 0.00 0.00 59 918.6
20260904065637 68 0 0.0 0.0 0.00 0.00 0.00 57 918.6
20260904064629 68 0 0.0 0.0 0.00 0.00 0.00 59 918.7
20260904063614 68 0 0.0 0.0 0.00 0.00 0.00 56 918.8
20260904063612 68 0 0.0 0.0 0.00 0.00 0.00 56 918.8
20260904061520 68 0 0.0 0.0 0.00 0.00 0.00 59 918.7
20260904060433 68 0 0.0 0.0 0.00 0.00 0.00 57 918.7
20260904055410 68 0 0.0 0.0 0.00 0.00 0.00 59 918.6
20260904054344 68 0 0.0 0.0 0.00 0.00 0.00 58 918.7
20260904053320 68 0 0.0 0.0 0.00 0.00 0.00 59 918.6
20260904052228 68 0 0.0 0.0 0.00 0.00 0.00 59 918.8
20260904051151 68 0 0.0 0.0 0.00 0.00 0.00 56 918.8
20260904050138 68 0 0.0 0.0 0.00 0.00 0.00 59 919.0
20260904045106 68 0 0.0 0.0 0.00 0.00 0.00 58 919.0
20260904044026 68 0 0.0 0.0 0.00 0.00 0.00 59 919.0
20260904043004 68 0 0.0 0.0 0.00 0.00 0.00 59 919.0
20260904043002 68 0 0.0 0.0 0.00 0.00 0.00 59 919.2
20260904041928 68 0 0.0 0.0 0.00 0.00 0.00 55 919.0
20260904040859 68 0 0.0 0.0 0.00 0.00 0.00 59 919.2
20260904035849 68 0 0.0 0.0 0.00 0.00 0.00 58 919.2
20260904035847 68 0 0.0 0.0 0.00 0.00 0.00 58 919.3
20260904034821 68 0 0.0 0.0 0.00 0.00 0.00 59 919.1
20260904033800 68 0 0.0 0.0 0.00 0.00 0.00 59 919.4
20260904032724 68 0 0.0 0.0 0.00 0.00 0.00 56 919.3
20260904031643 68 0 0.0 0.0 0.00 0.00 0.00 59 919.4
20260904030553 68 0 0.0 0.0 0.00 0.00 0.00 58 919.4
20260904025530 68 0 0.0 0.0 0.00 0.00 0.00 59 919.6
20260904023439 68 0 0.0 0.0 0.00 0.00 0.00 55 919.6
20260904022353 68 0 0.0 0.0 0.00 0.00 0.00 59 919.7
20260904020236 68 0 0.0 0.0 0.00 0.00 0.00 58 919.8
20260904015200 68 0 0.0 0.0 0.00 0.00 0.00 59 920.0
20260904015159 68 0 0.0 0.0 0.00 0.00 0.00 59 919.9
20260904014124 68 0 0.0 0.0 0.00 0.00 0.00 56 919.9
20260904013024 68 0 0.0 0.0 0.00 0.00 0.00 59 920.1
20260904011933 68 0 0.0 0.0 0.00 0.00 0.00 58 920.1
20260904010856 68 0 0.0 0.0 0.00 0.00 0.00 59 920.2
20260904005848 68 0 0.0 0.0 0.00 0.00 0.00 59 920.2
20260904004805 68 0 0.0 0.0 0.00 0.00 0.00 56 920.2
20260904003728 68 0 0.0 0.0 0.00 0.00 0.00 59 920.3
20260904002641 68 0 0.0 0.0 0.00 0.00 0.00 57 920.1
20260904001625 68 0 0.0 0.0 0.00 0.00 0.00 60 920.3
20260903235532 68 0 0.0 0.0 0.00 0.00 0.00 57 920.4
20260903234447 68 0 0.0 0.0 0.00 0.00 0.00 59 920.4
20260903233422 68 0 0.0 0.0 0.00 0.00 0.00 56 920.5
20260903232345 68 0 0.0 0.0 0.00 0.00 0.00 59 920.4
20260903231336 68 0 0.0 0.0 0.00 0.00 0.00 58 920.6
20260903231333 68 0 0.0 0.0 0.00 0.00 0.00 58 920.6
20260903230319 68 0 0.0 0.0 0.00 0.00 0.00 59 920.7
20260903225319 68 0 0.0 0.0 0.00 0.00 0.00 59 920.8
20260903224258 68 0 0.0 0.0 0.00 0.00 0.00 55 920.8
20260903223220 68 0 0.0 0.0 0.00 0.00 0.00 59 920.8
20260903222154 68 0 0.0 0.0 0.00 0.00 0.00 58 920.9
20260903221055 68 0 0.0 0.0 0.00 0.00 0.00 59 920.8
20260903215017 68 0 0.0 0.0 0.00 0.00 0.00 56 920.8
20260903214009 68 0 0.0 0.0 0.00 0.00 0.00 59 920.7
20260903212914 68 0 0.0 0.0 0.00 0.00 0.00 56 920.7
20260903211831 68 0 0.0 0.0 0.00 0.00 0.00 59 920.8
20260903210804 68 0 0.0 0.0 0.00 0.00 0.00 58 920.8
20260903205724 68 0 0.0 0.0 0.00 0.00 0.00 59 920.8
20260903204649 68 0 0.0 0.0 0.00 0.00 0.00 58 920.8
20260903203609 68 0 0.0 0.0 0.00 0.00 0.00 59 920.8
20260903202545 68 0 0.0 0.0 0.00 0.00 0.00 59 920.8
20260903201530 68 0 0.0 0.0 0.00 0.00 0.00 55 920.7
20260903200457 68 0 0.0 0.0 0.00 0.00 0.00 59 920.5
20260903200455 68 0 0.0 0.0 0.00 0.00 0.00 59 920.5
20260903195405 68 0 0.0 0.0 0.00 0.00 0.00 57 920.4
20260903194340 68 0 0.0 0.0 0.00 0.00 0.00 59 920.3
20260903193328 68 0 0.0 0.0 0.00 0.00 0.00 58 920.3
20260903192302 68 0 0.0 0.0 0.00 0.00 0.00 59 920.3
20260903191254 68 0 0.0 0.0 0.00 0.00 0.00 59 920.2
20260903190229 68 0 0.0 0.0 0.00 0.00 0.00 57 920.2
20260903185206 68 0 0.0 0.0 0.00 0.00 0.00 59 920.1
20260903184123 68 0 0.0 0.0 0.00 0.00 0.00 56 919.9
20260903183118 68 0 0.0 0.0 0.00 0.00 0.00 59 920.0
20260903182100 68 0 0.0 0.0 0.00 0.00 0.00 57 919.8
20260903180039 68 0 0.0 0.0 0.00 0.00 0.00 59 919.7
20260903175021 68 0 0.0 0.0 0.00 0.00 0.00 57 919.6
20260903174017 68 0 0.0 0.0 0.00 0.00 0.00 59 919.7
20260903172947 68 0 0.0 0.0 0.00 0.00 0.00 56 919.6
20260903170827 68 0 0.0 0.0 0.00 0.00 0.00 57 919.7
20260903165813 68 0 0.0 0.0 0.00 0.00 0.00 60 919.9
20260903165810 68 0 0.0 0.0 0.00 0.00 0.00 60 919.8
20260903164741 68 0 0.0 0.0 0.00 0.00 0.00 58 919.8
20260903162628 68 0 0.0 0.0 0.00 0.00 0.00 59 919.6
20260903161627 68 0 0.0 0.0 0.00 0.00 0.00 57 919.8
20260903160541 68 0 0.0 0.0 0.00 0.00 0.00 59 919.8
20260903155514 68 0 0.0 0.0 0.00 0.00 0.00 56 919.8
20260903154504 68 0 0.0 0.0 0.00 0.00 0.00 59 919.8
20260903153436 68 0 0.0 0.0 0.00 0.00 0.00 57 919.7
20260903152337 68 0 0.0 0.0 0.00 0.00 0.00 59 919.8
20260903151258 68 0 0.0 0.0 0.00 0.00 0.00 57 919.9
20260903150245 68 0 0.0 0.0 0.00 0.00 0.00 59 919.9
20260903145233 68 0 0.0 0.0 0.00 0.00 0.00 59 919.9
20260903144207 69 0 0.0 0.0 0.00 0.00 0.00 59 919.9
20260903143131 68 0 0.0 0.0 0.00 0.00 0.00 59 920.0
20260903142057 68 0 0.0 0.0 0.00 0.00 0.00 56 919.9
20260903141029 68 0 0.0 0.0 0.00 0.00 0.00 59 920.0
20260903134929 68 0 0.0 0.0 0.00 0.00 0.00 59 920.1
20260903132812 68 0 0.0 0.0 0.00 0.00 0.00 59 920.0
20260903131723 68 0 0.0 0.0 0.00 0.00 0.00 58 920.0
20260903131721 68 0 0.0 0.0 0.00 0.00 0.00 58 920.0
20260903130714 68 0 0.0 0.0 0.00 0.00 0.00 59 920.0
20260903125644 68 0 0.0 0.0 0.00 0.00 0.00 59 920.1
20260903124556 68 0 0.0 0.0 0.00 0.00 0.00 55 920.1
20260903123524 68 0 0.0 0.0 0.00 0.00 0.00 59 920.1
20260903122459 68 0 0.0 0.0 0.00 0.00 0.00 57 920.2
20260903121441 68 0 0.0 0.0 0.00 0.00 0.00 59 920.4
20260903115403 68 0 0.0 0.0 0.00 0.00 0.00 59 920.5
20260903114329 68 0 0.0 0.0 0.00 0.00 0.00 59 920.5
20260903113318 68 0 0.0 0.0 0.00 0.00 0.00 56 920.6
20260903112305 68 0 0.0 0.0 0.00 0.00 0.00 59 920.6
20260903111303 68 0 0.0 0.0 0.00 0.00 0.00 58 920.7
20260903110251 68 0 0.0 0.0 0.00 0.00 0.00 59 920.6
20260903105237 68 0 0.0 0.0 0.00 0.00 0.00 59 920.7
20260903104205 68 0 0.0 0.0 0.00 0.00 0.00 56 920.4
20260903102117 68 0 0.0 0.0 0.00 0.00 0.00 58 920.6
20260903101050 69 0 0.0 0.0 0.00 0.00 0.00 59 920.5
20260903100011 68 0 0.0 0.0 0.00 0.00 0.00 59 920.7
20260903094946 68 0 0.0 0.0 0.00 0.00 0.00 57 920.6
20260903093910 68 0 0.0 0.0 0.00 0.00 0.00 59 920.6
20260903092836 68 0 0.0 0.0 0.00 0.00 0.00 59 920.7